Time,TemperatureF,DewpointF,PressureIn,WindDirection,WindDirectionDegrees,WindSpeedMPH,WindSpeedGustMPH,Humidity,HourlyPrecipIn,Conditions,Clouds,dailyrainin,SoftwareType,DateUTC
2013-06-18 00:02:00,54.0,-99.9,29.81,WNW,285,2.0,3.0,0,-99.99,,,-99.99,,2013-06-18 07:02:00,
2013-06-18 00:12:00,54.0,-99.9,29.81,WNW,285,2.0,3.0,0,-99.99,,,-99.99,,2013-06-18 07:12:00,
2013-06-18 00:22:00,53.0,-99.9,29.82,North,10,3.0,5.0,0,-99.99,,,-99.99,,2013-06-18 07:22:00,
2013-06-18 00:33:00,53.0,-99.9,29.82,North,10,3.0,5.0,0,-99.99,,,-99.99,,2013-06-18 07:33:00,
2013-06-18 00:43:00,52.0,-99.9,29.81,NNW,345,3.0,5.0,0,-99.99,,,-99.99,,2013-06-18 07:43:00,
2013-06-18 00:53:00,52.0,-99.9,29.81,NNW,345,3.0,5.0,0,-99.99,,,-99.99,,2013-06-18 07:53:00,
2013-06-18 01:02:00,52.0,-99.9,29.82,NNW,335,1.0,6.0,0,-99.99,,,-99.99,,2013-06-18 08:02:00,
2013-06-18 01:11:00,52.0,-99.9,29.82,NNW,335,1.0,6.0,0,-99.99,,,-99.99,,2013-06-18 08:11:00,
2013-06-18 01:23:00,51.0,-99.9,29.82,NW,325,1.0,3.0,0,-99.99,,,-99.99,,2013-06-18 08:23:00,
2013-06-18 01:33:00,51.0,-99.9,29.82,NW,325,1.0,3.0,0,-99.99,,,-99.99,,2013-06-18 08:33:00,
2013-06-18 01:43:00,51.0,-99.9,29.82,NW,325,1.0,3.0,0,-99.99,,,-99.99,,2013-06-18 08:43:00,
2013-06-18 01:52:00,50.0,-99.9,29.81,NNW,340,1.0,3.0,0,-99.99,,,-99.99,,2013-06-18 08:52:00,
2013-06-18 02:02:00,50.0,-99.9,29.80,North,350,2.0,3.0,0,-99.99,,,-99.99,,2013-06-18 09:02:00,
2013-06-18 02:12:00,50.0,-99.9,29.81,NNE,15,0.0,3.0,0,-99.99,,,-99.99,,2013-06-18 09:12:00,
2013-06-18 02:22:00,50.0,-99.9,29.81,NNE,15,0.0,3.0,0,-99.99,,,-99.99,,2013-06-18 09:22:00,
2013-06-18 02:34:00,50.0,-99.9,29.80,North,10,0.0,3.0,0,-99.99,,,-99.99,,2013-06-18 09:34:00,
2013-06-18 02:43:00,49.0,-99.9,29.81,NNW,340,1.0,3.0,0,-99.99,,,-99.99,,2013-06-18 09:43:00,
2013-06-18 02:53:00,49.0,-99.9,29.81,NNW,340,1.0,3.0,0,-99.99,,,-99.99,,2013-06-18 09:53:00,
2013-06-18 03:02:00,50.0,-99.9,29.81,NNW,340,0.0,3.0,0,-99.99,,,-99.99,,2013-06-18 10:02:00,
2013-06-18 03:11:00,50.0,-99.9,29.81,NNW,340,0.0,3.0,0,-99.99,,,-99.99,,2013-06-18 10:11:00,
2013-06-18 03:22:00,50.0,-99.9,29.81,North,5,0.0,2.0,0,-99.99,,,-99.99,,2013-06-18 10:22:00,
2013-06-18 03:33:00,50.0,-99.9,29.81,North,5,0.0,2.0,0,-99.99,,,-99.99,,2013-06-18 10:33:00,
2013-06-18 03:43:00,50.0,-99.9,29.80,North,5,0.0,3.0,0,-99.99,,,-99.99,,2013-06-18 10:43:00,
2013-06-18 03:53:00,50.0,-99.9,29.80,North,5,0.0,3.0,0,-99.99,,,-99.99,,2013-06-18 10:53:00,
2013-06-18 04:02:00,49.0,-99.9,29.80,North,5,0.0,3.0,0,-99.99,,,-99.99,,2013-06-18 11:02:00,
2013-06-18 04:11:00,49.0,-99.9,29.80,North,5,0.0,3.0,0,-99.99,,,-99.99,,2013-06-18 11:11:00,
2013-06-18 04:22:00,49.0,-99.9,29.79,North,350,1.0,3.0,0,-99.99,,,-99.99,,2013-06-18 11:22:00,
2013-06-18 04:32:00,49.0,-99.9,29.79,North,350,1.0,3.0,0,-99.99,,,-99.99,,2013-06-18 11:32:00,
2013-06-18 04:43:00,49.0,-99.9,29.80,WNW,295,0.0,2.0,0,-99.99,,,-99.99,,2013-06-18 11:43:00,
2013-06-18 04:52:00,49.0,-99.9,29.80,WNW,295,0.0,2.0,0,-99.99,,,-99.99,,2013-06-18 11:52:00,
2013-06-18 05:02:00,49.0,-99.9,29.80,NNW,340,0.0,2.0,0,-99.99,,,-99.99,,2013-06-18 12:02:00,
2013-06-18 05:11:00,49.0,-99.9,29.80,NNW,340,0.0,2.0,0,-99.99,,,-99.99,,2013-06-18 12:11:00,
2013-06-18 05:22:00,49.0,-99.9,29.80,North,350,0.0,3.0,0,-99.99,,,-99.99,,2013-06-18 12:22:00,
2013-06-18 05:33:00,49.0,-99.9,29.79,North,10,1.0,3.0,0,-99.99,,,-99.99,,2013-06-18 12:33:00,
2013-06-18 05:43:00,49.0,-99.9,29.79,North,355,3.0,3.0,0,-99.99,,,-99.99,,2013-06-18 12:43:00,
2013-06-18 05:52:00,49.0,-99.9,29.79,North,355,3.0,3.0,0,-99.99,,,-99.99,,2013-06-18 12:52:00,
2013-06-18 06:02:00,49.0,-99.9,29.79,NW,320,0.0,2.0,0,-99.99,,,-99.99,,2013-06-18 13:02:00,
2013-06-18 06:12:00,49.0,-99.9,29.79,NW,320,0.0,2.0,0,-99.99,,,-99.99,,2013-06-18 13:12:00,
2013-06-18 06:22:00,48.0,-99.9,29.79,NNW,330,1.0,3.0,0,-99.99,,,-99.99,,2013-06-18 13:22:00,
2013-06-18 06:34:00,48.0,-99.9,29.79,NNW,330,1.0,3.0,0,-99.99,,,-99.99,,2013-06-18 13:34:00,
2013-06-18 06:43:00,48.0,-99.9,29.79,NNW,330,1.0,3.0,0,-99.99,,,-99.99,,2013-06-18 13:43:00,
2013-06-18 06:53:00,48.0,-99.9,29.79,NNW,340,0.0,2.0,0,-99.99,,,-99.99,,2013-06-18 13:53:00,
2013-06-18 07:02:00,48.0,-99.9,29.79,NNW,345,0.0,3.0,0,-99.99,,,-99.99,,2013-06-18 14:02:00,
2013-06-18 07:12:00,48.0,-99.9,29.79,NNW,345,0.0,3.0,0,-99.99,,,-99.99,,2013-06-18 14:12:00,
2013-06-18 07:22:00,48.0,-99.9,29.80,NNW,340,0.0,2.0,0,-99.99,,,-99.99,,2013-06-18 14:22:00,
2013-06-18 07:33:00,48.0,-99.9,29.79,NW,320,2.0,3.0,0,-99.99,,,-99.99,,2013-06-18 14:33:00,
2013-06-18 07:43:00,48.0,-99.9,29.80,NW,310,1.0,2.0,0,-99.99,,,-99.99,,2013-06-18 14:43:00,
2013-06-18 07:53:00,48.0,-99.9,29.80,NW,310,1.0,2.0,0,-99.99,,,-99.99,,2013-06-18 14:53:00,
2013-06-18 08:02:00,48.0,-99.9,29.79,NNW,345,1.0,3.0,0,-99.99,,,-99.99,,2013-06-18 15:02:00,
2013-06-18 08:11:00,48.0,-99.9,29.79,NNW,345,1.0,3.0,0,-99.99,,,-99.99,,2013-06-18 15:11:00,
2013-06-18 08:22:00,48.0,-99.9,29.80,NW,320,0.0,3.0,0,-99.99,,,-99.99,,2013-06-18 15:22:00,
2013-06-18 08:33:00,48.0,-99.9,29.80,NW,320,0.0,3.0,0,-99.99,,,-99.99,,2013-06-18 15:33:00,
2013-06-18 08:43:00,48.0,-99.9,29.79,NW,325,2.0,6.0,0,-99.99,,,-99.99,,2013-06-18 15:43:00,
2013-06-18 08:53:00,48.0,-99.9,29.79,NW,325,2.0,6.0,0,-99.99,,,-99.99,,2013-06-18 15:53:00,
2013-06-18 09:02:00,48.0,-99.9,29.79,NW,325,1.0,3.0,0,-99.99,,,-99.99,,2013-06-18 16:02:00,
2013-06-18 09:12:00,48.0,-99.9,29.79,NW,325,1.0,3.0,0,-99.99,,,-99.99,,2013-06-18 16:12:00,